AAL2404 KICT-KDFW

Flight info

Callsign AAL2404
Flight time 1h 3m
Altitude 36000
Route JAMEY PER IBAKE JOVEM6
Aircraft A320/M-SDE3FGHIRWY/LB1

Departure

Time 2026-05-06 15:44
Airport Wichita Dwight D. Eisenhower National Airport (KICT)

Arrival

Time 2026-05-06 16:47
Airport Dallas Fort Worth International Airport (KDFW)
Time Latitude Longitude Altitude Speed Heading
2026-05-06 15:19 37.65293 -97.43169 1334 ft 0 kts 60°
2026-05-06 15:34 37.65292 -97.43171 1334 ft 2 kts 60°
2026-05-06 15:35 37.65284 -97.43190 1336 ft 3 kts 72°
2026-05-06 15:35 37.65279 -97.43212 1341 ft 3 kts 83°
2026-05-06 15:35 37.65277 -97.43232 1340 ft 3 kts 91°
2026-05-06 15:35 37.65277 -97.43255 1340 ft 3 kts 109°
2026-05-06 15:36 37.65283 -97.43268 1339 ft 0 kts 152°
2026-05-06 15:39 37.65273 -97.43266 1335 ft 4 kts 179°
2026-05-06 15:39 37.65247 -97.43292 1332 ft 6 kts 224°
2026-05-06 15:40 37.65200 -97.43302 1333 ft 8 kts 165°
2026-05-06 15:40 37.65139 -97.43262 1332 ft 11 kts 149°
2026-05-06 15:40 37.65066 -97.43209 1332 ft 13 kts 150°
2026-05-06 15:40 37.65007 -97.43180 1333 ft 9 kts 180°
2026-05-06 15:41 37.64943 -97.43187 1334 ft 10 kts 161°
2026-05-06 15:41 37.64917 -97.43097 1333 ft 14 kts 86°
2026-05-06 15:41 37.64926 -97.42961 1331 ft 18 kts 85°
2026-05-06 15:41 37.64900 -97.42849 1330 ft 15 kts 156°
2026-05-06 15:42 37.64794 -97.42833 1331 ft 16 kts 173°
2026-05-06 15:42 37.64673 -97.42820 1330 ft 19 kts 175°
2026-05-06 15:42 37.64535 -97.42806 1329 ft 21 kts 175°
2026-05-06 15:42 37.64397 -97.42790 1328 ft 17 kts 175°
2026-05-06 15:43 37.64322 -97.42739 1331 ft 11 kts 112°
2026-05-06 15:43 37.64301 -97.42650 1334 ft 10 kts 92°
2026-05-06 15:43 37.64354 -97.42593 1337 ft 14 kts 19°
2026-05-06 15:43 37.64621 -97.42472 1332 ft 74 kts 20°
2026-05-06 15:44 37.65296 -97.42163 1328 ft 129 kts 20°
2026-05-06 15:44 37.66230 -97.41733 1633 ft 145 kts 19°
2026-05-06 15:44 37.67177 -97.41308 2275 ft 145 kts 20°
2026-05-06 15:44 37.68142 -97.40900 2911 ft 147 kts 20°
2026-05-06 15:45 37.69164 -97.40491 3292 ft 164 kts 20°
2026-05-06 15:45 37.70300 -97.39946 3552 ft 186 kts 36°
2026-05-06 15:45 37.71118 -97.38595 3811 ft 210 kts 71°
2026-05-06 15:45 37.71154 -97.36655 4184 ft 239 kts 103°
2026-05-06 15:46 37.70267 -97.34793 4870 ft 260 kts 133°
2026-05-06 15:46 37.68669 -97.33646 5716 ft 273 kts 162°
2026-05-06 15:46 37.66750 -97.33477 6639 ft 280 kts 182°
2026-05-06 15:46 37.64805 -97.33800 7508 ft 285 kts 187°
2026-05-06 15:47 37.62840 -97.34168 8355 ft 288 kts 188°
2026-05-06 15:47 37.60842 -97.34496 9259 ft 290 kts 189°
2026-05-06 15:47 37.58830 -97.34806 10113 ft 293 kts 190°
2026-05-06 15:47 37.56723 -97.35130 10413 ft 316 kts 189°
2026-05-06 15:48 37.54497 -97.35480 10602 ft 338 kts 189°
2026-05-06 15:48 37.52055 -97.35867 10819 ft 358 kts 190°
2026-05-06 15:48 37.49553 -97.36261 11387 ft 365 kts 191°
2026-05-06 15:48 37.47030 -97.36652 12086 ft 366 kts 193°
2026-05-06 15:49 37.44501 -97.37046 12848 ft 367 kts 194°
2026-05-06 15:49 37.41964 -97.37442 13652 ft 367 kts 195°
2026-05-06 15:49 37.39426 -97.37839 14389 ft 367 kts 195°
2026-05-06 15:49 37.36896 -97.38237 15068 ft 368 kts 195°
2026-05-06 15:50 37.34343 -97.38641 15732 ft 369 kts 196°
2026-05-06 15:50 37.31783 -97.38989 16401 ft 375 kts 191°
2026-05-06 15:50 37.29135 -97.38784 17092 ft 390 kts 180°
2026-05-06 15:50 37.26466 -97.37877 17769 ft 403 kts 171°
2026-05-06 15:51 37.23813 -97.36753 18430 ft 404 kts 172°
2026-05-06 15:51 37.21145 -97.35617 19044 ft 405 kts 172°
2026-05-06 15:51 37.18471 -97.34477 19626 ft 406 kts 172°
2026-05-06 15:51 37.15788 -97.33337 20191 ft 408 kts 173°
2026-05-06 15:52 37.13086 -97.32191 20747 ft 411 kts 173°
2026-05-06 15:52 37.10377 -97.31045 21238 ft 413 kts 173°
2026-05-06 15:52 37.07651 -97.29893 21734 ft 415 kts 173°
2026-05-06 15:52 37.04909 -97.28734 22206 ft 416 kts 173°
2026-05-06 15:53 37.02153 -97.27573 22649 ft 419 kts 173°
2026-05-06 15:53 36.99386 -97.26405 23039 ft 420 kts 174°
2026-05-06 15:53 36.96605 -97.25235 23460 ft 422 kts 174°
2026-05-06 15:53 36.93848 -97.24079 23842 ft 425 kts 174°
2026-05-06 15:54 36.91044 -97.22903 24167 ft 427 kts 174°
2026-05-06 15:54 36.88186 -97.21704 24492 ft 429 kts 174°
2026-05-06 15:54 36.85349 -97.20514 24825 ft 431 kts 174°
2026-05-06 15:54 36.82502 -97.19319 25159 ft 433 kts 174°
2026-05-06 15:55 36.79680 -97.18134 25480 ft 435 kts 175°
2026-05-06 15:55 36.76765 -97.17101 25763 ft 424 kts 182°
2026-05-06 15:55 36.73921 -97.16660 26100 ft 410 kts 190°
2026-05-06 15:55 36.71109 -97.16764 26423 ft 399 kts 198°
2026-05-06 15:56 36.68392 -97.17284 26745 ft 395 kts 201°
2026-05-06 15:56 36.65674 -97.17847 27107 ft 396 kts 201°
2026-05-06 15:56 36.62963 -97.18398 27581 ft 394 kts 201°
2026-05-06 15:56 36.60263 -97.18940 28070 ft 392 kts 201°
2026-05-06 15:57 36.57546 -97.19485 28561 ft 389 kts 201°
2026-05-06 15:57 36.54916 -97.20016 29052 ft 387 kts 202°
2026-05-06 15:57 36.52231 -97.20562 29506 ft 385 kts 202°
2026-05-06 15:57 36.49588 -97.21100 29986 ft 384 kts 202°
2026-05-06 15:58 36.46950 -97.21636 30440 ft 383 kts 202°
2026-05-06 15:58 36.44327 -97.22164 30879 ft 381 kts 202°
2026-05-06 15:58 36.41721 -97.22685 31324 ft 379 kts 202°
2026-05-06 15:58 36.39127 -97.23203 31784 ft 376 kts 202°
2026-05-06 15:59 36.36556 -97.23719 32254 ft 374 kts 203°
2026-05-06 15:59 36.33995 -97.24231 32733 ft 371 kts 203°
2026-05-06 15:59 36.31457 -97.24738 33201 ft 369 kts 203°
2026-05-06 15:59 36.28966 -97.25236 33673 ft 366 kts 204°
2026-05-06 16:00 36.26457 -97.25742 34014 ft 366 kts 204°
2026-05-06 16:00 36.23941 -97.26254 34098 ft 368 kts 204°
2026-05-06 16:00 36.18825 -97.27308 34107 ft 375 kts 203°
2026-05-06 16:01 36.13672 -97.28347 34105 ft 376 kts 203°
2026-05-06 16:01 36.08510 -97.29364 34108 ft 376 kts 203°
2026-05-06 16:02 36.03346 -97.30384 34108 ft 376 kts 203°
2026-05-06 16:02 35.98179 -97.31417 34093 ft 376 kts 203°
2026-05-06 16:03 35.93019 -97.32455 34103 ft 376 kts 203°
2026-05-06 16:03 35.87867 -97.33490 34107 ft 376 kts 203°
2026-05-06 16:04 35.82702 -97.34518 34139 ft 376 kts 203°
2026-05-06 16:04 35.77542 -97.35537 34141 ft 375 kts 203°
2026-05-06 16:05 35.72390 -97.36556 34135 ft 375 kts 203°
2026-05-06 16:05 35.67229 -97.37582 34132 ft 375 kts 203°
2026-05-06 16:06 35.62076 -97.38607 34118 ft 376 kts 203°
2026-05-06 16:06 35.56912 -97.39625 34121 ft 375 kts 203°
2026-05-06 16:07 35.51751 -97.40642 34070 ft 375 kts 202°
2026-05-06 16:07 35.46602 -97.41652 34106 ft 375 kts 202°
2026-05-06 16:08 35.41457 -97.42666 34118 ft 375 kts 202°
2026-05-06 16:08 35.36298 -97.43685 34128 ft 375 kts 202°
2026-05-06 16:09 35.31143 -97.44692 34139 ft 375 kts 202°
2026-05-06 16:09 35.25999 -97.45697 34068 ft 374 kts 202°
2026-05-06 16:10 35.21720 -97.46545 34089 ft 375 kts 202°
2026-05-06 16:10 35.16563 -97.47561 34105 ft 375 kts 202°
2026-05-06 16:11 35.11409 -97.48566 34081 ft 376 kts 202°
2026-05-06 16:11 35.06236 -97.49574 34089 ft 376 kts 202°
2026-05-06 16:12 35.01033 -97.50449 34051 ft 384 kts 198°
2026-05-06 16:12 34.95689 -97.50902 34058 ft 385 kts 198°
2026-05-06 16:13 34.90341 -97.51351 34064 ft 385 kts 198°
2026-05-06 16:13 34.84998 -97.51819 33853 ft 386 kts 198°
2026-05-06 16:14 34.82316 -97.52052 33488 ft 387 kts 198°
2026-05-06 16:14 34.79623 -97.52286 33126 ft 389 kts 198°
2026-05-06 16:14 34.76951 -97.52515 32773 ft 390 kts 198°
2026-05-06 16:14 34.74196 -97.52751 32369 ft 394 kts 197°
2026-05-06 16:15 34.71458 -97.52988 32023 ft 397 kts 197°
2026-05-06 16:15 34.68720 -97.53224 31680 ft 399 kts 197°
2026-05-06 16:15 34.65907 -97.53467 31339 ft 400 kts 197°
2026-05-06 16:15 34.63126 -97.53703 31005 ft 402 kts 197°
2026-05-06 16:16 34.60326 -97.53938 30675 ft 403 kts 196°
2026-05-06 16:16 34.57522 -97.54170 30349 ft 405 kts 196°
2026-05-06 16:16 34.54709 -97.54402 30005 ft 406 kts 196°
2026-05-06 16:16 34.51885 -97.54639 29614 ft 407 kts 196°
2026-05-06 16:17 34.49061 -97.54880 29195 ft 409 kts 195°
2026-05-06 16:17 34.46206 -97.55126 28845 ft 411 kts 195°
2026-05-06 16:17 34.43344 -97.55369 28535 ft 413 kts 195°
2026-05-06 16:17 34.40472 -97.55616 28224 ft 415 kts 195°
2026-05-06 16:18 34.37588 -97.55862 27911 ft 416 kts 194°
2026-05-06 16:18 34.34724 -97.56101 27609 ft 418 kts 194°
2026-05-06 16:18 34.31784 -97.56346 27303 ft 419 kts 194°
2026-05-06 16:18 34.28906 -97.56588 27003 ft 421 kts 194°
2026-05-06 16:19 34.25984 -97.56834 26707 ft 422 kts 194°
2026-05-06 16:19 34.23008 -97.57082 26361 ft 425 kts 194°
2026-05-06 16:19 34.20049 -97.57333 26075 ft 428 kts 194°
2026-05-06 16:19 34.17077 -97.57588 25786 ft 429 kts 194°
2026-05-06 16:20 34.14130 -97.57840 25509 ft 431 kts 194°
2026-05-06 16:20 34.11138 -97.58097 25227 ft 432 kts 194°
2026-05-06 16:20 34.08162 -97.58345 24945 ft 421 kts 193°
2026-05-06 16:20 34.05294 -97.58569 24666 ft 404 kts 194°
2026-05-06 16:21 34.02550 -97.58782 24461 ft 388 kts 194°
2026-05-06 16:21 33.99905 -97.58991 24193 ft 376 kts 194°
2026-05-06 16:21 33.97319 -97.59208 23899 ft 367 kts 195°
2026-05-06 16:21 33.94778 -97.59436 23821 ft 368 kts 195°
2026-05-06 16:22 33.92228 -97.59667 23502 ft 367 kts 195°
2026-05-06 16:22 33.89685 -97.59889 23184 ft 365 kts 195°
2026-05-06 16:22 33.87158 -97.60106 22882 ft 364 kts 194°
2026-05-06 16:22 33.84642 -97.60320 22582 ft 362 kts 194°
2026-05-06 16:23 33.82129 -97.60531 22285 ft 361 kts 194°
2026-05-06 16:23 33.79632 -97.60737 21988 ft 359 kts 194°
2026-05-06 16:23 33.77135 -97.60945 21689 ft 358 kts 194°
2026-05-06 16:23 33.74660 -97.61152 21396 ft 356 kts 194°
2026-05-06 16:24 33.72196 -97.61361 21098 ft 355 kts 194°
2026-05-06 16:24 33.69738 -97.61565 20803 ft 353 kts 194°
2026-05-06 16:24 33.67296 -97.61765 20518 ft 352 kts 194°
2026-05-06 16:24 33.64852 -97.61965 20235 ft 350 kts 194°
2026-05-06 16:25 33.62420 -97.62167 19893 ft 350 kts 194°
2026-05-06 16:25 33.59992 -97.62371 19370 ft 349 kts 194°
2026-05-06 16:25 33.57589 -97.62571 18891 ft 346 kts 194°
2026-05-06 16:25 33.55195 -97.62768 18525 ft 340 kts 194°
2026-05-06 16:26 33.52859 -97.62957 18152 ft 333 kts 194°
2026-05-06 16:26 33.50555 -97.63148 17600 ft 331 kts 193°
2026-05-06 16:26 33.48269 -97.63339 17024 ft 330 kts 193°
2026-05-06 16:26 33.45987 -97.63530 16524 ft 327 kts 192°
2026-05-06 16:27 33.43725 -97.63722 16021 ft 323 kts 192°
2026-05-06 16:27 33.41493 -97.63873 15594 ft 323 kts 187°
2026-05-06 16:27 33.39244 -97.63486 15144 ft 332 kts 172°
2026-05-06 16:27 33.37105 -97.62345 14767 ft 342 kts 155°
2026-05-06 16:28 33.35241 -97.60505 14459 ft 352 kts 143°
2026-05-06 16:28 33.33502 -97.58447 14126 ft 350 kts 143°
2026-05-06 16:28 33.31779 -97.56408 13780 ft 348 kts 143°
2026-05-06 16:28 33.30073 -97.54390 13482 ft 341 kts 142°
2026-05-06 16:29 33.28422 -97.52437 13126 ft 336 kts 142°
2026-05-06 16:29 33.26769 -97.50491 12901 ft 332 kts 142°
2026-05-06 16:29 33.25113 -97.48552 12814 ft 333 kts 142°
2026-05-06 16:29 33.23458 -97.46620 12724 ft 334 kts 142°
2026-05-06 16:30 33.21796 -97.44681 12617 ft 334 kts 142°
2026-05-06 16:30 33.20674 -97.43371 12547 ft 334 kts 142°
2026-05-06 16:30 33.18454 -97.40777 12403 ft 333 kts 142°
2026-05-06 16:30 33.16825 -97.38873 12302 ft 331 kts 142°
2026-05-06 16:31 33.15189 -97.36957 12168 ft 319 kts 142°
2026-05-06 16:31 33.13657 -97.35161 12032 ft 308 kts 142°
2026-05-06 16:31 33.12153 -97.33396 12003 ft 298 kts 142°
2026-05-06 16:31 33.10675 -97.31663 12007 ft 298 kts 142°
2026-05-06 16:32 33.09192 -97.29935 12012 ft 298 kts 143°
2026-05-06 16:32 33.07709 -97.28211 12007 ft 297 kts 142°
2026-05-06 16:32 33.06233 -97.26496 12009 ft 297 kts 142°
2026-05-06 16:32 33.04748 -97.24769 12012 ft 297 kts 142°
2026-05-06 16:33 33.03291 -97.23068 12003 ft 288 kts 142°
2026-05-06 16:33 33.01895 -97.21429 11995 ft 276 kts 143°
2026-05-06 16:33 33.00559 -97.19860 12001 ft 263 kts 143°
2026-05-06 16:34 32.97708 -97.17385 12002 ft 246 kts 168°
2026-05-06 16:34 32.96062 -97.16954 11760 ft 239 kts 184°
2026-05-06 16:34 32.94410 -97.16874 11485 ft 237 kts 184°
2026-05-06 16:34 32.92764 -97.16790 11254 ft 236 kts 184°
2026-05-06 16:35 32.91124 -97.16705 11024 ft 237 kts 184°
2026-05-06 16:35 32.89476 -97.16616 10786 ft 237 kts 183°
2026-05-06 16:35 32.87827 -97.16524 10556 ft 238 kts 183°
2026-05-06 16:35 32.86173 -97.16432 10321 ft 238 kts 182°
2026-05-06 16:36 32.84517 -97.16340 10087 ft 239 kts 182°
2026-05-06 16:36 32.82855 -97.16250 9837 ft 239 kts 182°
2026-05-06 16:36 32.81203 -97.16160 9590 ft 238 kts 182°
2026-05-06 16:36 32.79547 -97.16074 9353 ft 237 kts 183°
2026-05-06 16:37 32.77901 -97.16044 9119 ft 236 kts 185°
2026-05-06 16:37 32.76262 -97.16045 8880 ft 235 kts 185°
2026-05-06 16:37 32.74638 -97.16052 8660 ft 234 kts 185°
2026-05-06 16:37 32.73004 -97.16060 8419 ft 233 kts 184°
2026-05-06 16:38 32.71387 -97.16067 8195 ft 232 kts 184°
2026-05-06 16:38 32.69772 -97.16071 7963 ft 231 kts 184°
2026-05-06 16:38 32.68170 -97.16073 7733 ft 230 kts 183°
2026-05-06 16:38 32.66578 -97.16071 7512 ft 227 kts 183°
2026-05-06 16:39 32.64999 -97.16070 7293 ft 227 kts 183°
2026-05-06 16:39 32.63428 -97.16071 7073 ft 225 kts 183°
2026-05-06 16:39 32.61871 -97.16078 6847 ft 224 kts 183°
2026-05-06 16:39 32.60305 -97.15975 6613 ft 227 kts 169°
2026-05-06 16:40 32.58901 -97.15121 6385 ft 233 kts 141°
2026-05-06 16:40 32.58015 -97.13494 6164 ft 241 kts 109°
2026-05-06 16:40 32.57959 -97.11501 6015 ft 247 kts 77°
2026-05-06 16:40 32.58467 -97.09557 5868 ft 247 kts 75°
2026-05-06 16:41 32.59158 -97.07699 5713 ft 248 kts 55°
2026-05-06 16:41 32.60408 -97.06300 5570 ft 248 kts 28°
2026-05-06 16:41 32.62009 -97.05648 5445 ft 243 kts
2026-05-06 16:41 32.63696 -97.05596 5262 ft 243 kts 357°
2026-05-06 16:42 32.65363 -97.05596 4978 ft 243 kts 358°
2026-05-06 16:42 32.67081 -97.05590 4644 ft 246 kts 358°
2026-05-06 16:42 32.68786 -97.05581 4320 ft 242 kts 359°
2026-05-06 16:42 32.70444 -97.05572 4003 ft 230 kts 359°
2026-05-06 16:43 32.71958 -97.05564 3716 ft 207 kts 359°
2026-05-06 16:43 32.73308 -97.05557 3465 ft 186 kts
2026-05-06 16:43 32.74543 -97.05552 3258 ft 169 kts
2026-05-06 16:43 32.75672 -97.05547 3017 ft 159 kts
2026-05-06 16:44 32.76768 -97.05541 2809 ft 158 kts
2026-05-06 16:44 32.77851 -97.05536 2611 ft 155 kts
2026-05-06 16:44 32.78906 -97.05530 2414 ft 151 kts
2026-05-06 16:44 32.79959 -97.05524 2207 ft 152 kts
2026-05-06 16:45 32.81009 -97.05519 2010 ft 147 kts
2026-05-06 16:45 32.81987 -97.05515 1818 ft 135 kts
2026-05-06 16:45 32.82917 -97.05510 1627 ft 133 kts
2026-05-06 16:45 32.83846 -97.05511 1453 ft 133 kts
2026-05-06 16:46 32.84769 -97.05503 1277 ft 131 kts
2026-05-06 16:46 32.85687 -97.05494 1088 ft 131 kts
2026-05-06 16:46 32.86603 -97.05488 914 ft 133 kts
2026-05-06 16:46 32.87534 -97.05483 736 ft 133 kts
2026-05-06 16:47 32.88446 -97.05477 600 ft 124 kts
2026-05-06 16:47 32.89128 -97.05475 598 ft 73 kts 360°
2026-05-06 16:47 32.89484 -97.05474 598 ft 41 kts
2026-05-06 16:47 32.89754 -97.05469 598 ft 37 kts
2026-05-06 16:48 32.89964 -97.05383 598 ft 25 kts 28°
2026-05-06 16:48 32.90075 -97.05308 598 ft 13 kts 30°
2026-05-06 16:48 32.90117 -97.05228 598 ft 11 kts 89°
2026-05-06 16:48 32.90117 -97.05210 598 ft 2 kts 89°
2026-05-06 16:49 32.90117 -97.05150 598 ft 14 kts 90°
2026-05-06 16:49 32.90117 -97.05017 598 ft 18 kts 90°
2026-05-06 16:49 32.90144 -97.04893 598 ft 16 kts 28°
2026-05-06 16:49 32.90260 -97.04888 598 ft 18 kts 359°
2026-05-06 16:50 32.90394 -97.04885 598 ft 21 kts
2026-05-06 16:50 32.90545 -97.04884 598 ft 23 kts
2026-05-06 16:50 32.90711 -97.04884 598 ft 25 kts
2026-05-06 16:50 32.90817 -97.04883 598 ft 17 kts
2026-05-06 16:51 32.90909 -97.04818 598 ft 14 kts 87°
2026-05-06 16:51 32.90909 -97.04690 598 ft 17 kts 91°
2026-05-06 16:51 32.90908 -97.04536 598 ft 20 kts 90°
2026-05-06 16:51 32.90908 -97.04360 598 ft 23 kts 90°
2026-05-06 16:52 32.90907 -97.04165 598 ft 25 kts 90°
2026-05-06 16:52 32.90906 -97.03964 598 ft 23 kts 90°
2026-05-06 16:52 32.90905 -97.03763 598 ft 25 kts 90°
2026-05-06 16:52 32.90904 -97.03561 598 ft 24 kts 91°
2026-05-06 16:53 32.90904 -97.03396 598 ft 16 kts 89°
2026-05-06 16:53 32.90867 -97.03313 598 ft 13 kts 169°
2026-05-06 16:53 32.90766 -97.03312 598 ft 16 kts 180°
2026-05-06 16:53 32.90646 -97.03312 598 ft 18 kts 180°
2026-05-06 16:54 32.90510 -97.03313 598 ft 21 kts 180°
2026-05-06 16:54 32.90355 -97.03313 598 ft 24 kts 180°
2026-05-06 16:54 32.90191 -97.03314 598 ft 21 kts 180°
2026-05-06 16:54 32.90105 -97.03327 598 ft 12 kts 219°
2026-05-06 16:55 32.90090 -97.03430 598 ft 14 kts 270°
2026-05-06 16:55 32.90091 -97.03554 598 ft 15 kts 270°
2026-05-06 16:55 32.90092 -97.03625 598 ft 12 kts 274°
2026-05-06 16:55 32.90099 -97.03702 598 ft 7 kts 252°
2026-05-06 16:56 32.90065 -97.03722 598 ft 2 kts 176°
2026-05-06 16:56 32.90046 -97.03722 598 ft 2 kts 180°
2026-05-06 16:56 32.90045 -97.03722 598 ft 0 kts 180°